Wind_Speed
16 16 16 16 15 14 14 12 12 11 10 9 9 8 7 6 5 5 5 4 4 4 4 4 5 4 4 4 3 3 3 3 2 2 3 4 4 4 5 6 7 7 8
17 17 17 17 16 15 14 13 12 11 10 10 9 8 7 6 6 5 4 4 4 5 4 4 4 4 3 3 2 2 3 3 2 2 3 3 4 4 4 5 6 7 7
17 17 17 17 16 15 15 14 13 12 11 10 9 9 7 7 6 5 4 4 4 4 3 3 3 3 2 2 2 2 2 2 1 1 2 3 3 4 4 5 5 6 7
17 18 18 18 17 16 16 15 14 13 11 11 10 9 8 7 7 6 5 4 3 3 3 3 3 2 2 2 2 2 2 2 1 1 1 2 3 4 4 4 5 6 6
18 18 18 18 17 17 16 15 14 14 12 11 10 9 9 7 7 6 5 4 4 3 3 3 3 2 2 2 3 2 2 2 1 1 1 1 2 3 4 5 5 6 6
18 18 18 18 18 17 16 15 14 14 13 12 11 10 9 8 8 7 6 5 5 4 4 3 3 3 3 3 2 2 1 1 1 1 1 2 2 3 4 4 5 6 6
18 18 18 18 18 17 16 16 14 14 14 13 12 11 10 9 9 8 7 6 6 5 4 4 4 4 4 3 2 2 2 2 2 2 2 2 3 3 3 4 4 5 6
17 17 18 18 18 18 17 16 15 14 14 14 12 12 10 10 9 8 7 7 6 5 5 4 4 4 4 5 4 4 3 3 3 3 3 3 3 3 3 3 3 4 5
16 16 17 17 17 17 17 16 16 15 15 15 14 12 11 11 10 9 8 7 7 6 5 5 5 4 4 3 3 3 4 4 4 4 3 4 4 3 4 4 4 5 5
15 16 17 17 17 17 17 17 17 16 15 15 14 13 12 12 12 10 9 9 8 7 7 6 6 5 4 4 4 4 5 5 5 5 5 5 5 5 5 5 5 6 6
14 14 15 17 18 18 17 18 17 16 16 15 15 14 13 13 12 11 9 9 9 9 8 7 6 6 6 6 6 6 6 6 6 6 6 6 6 6 6 7 7 8 8
14 14 15 16 17 18 17 17 17 16 16 16 16 15 14 13 13 12 11 10 10 10 9 8 7 7 7 7 7 7 7 6 6 6 7 7 7 8 8 9 9 9 10
14 15 15 16 17 18 18 17 17 17 17 16 16 16 15 15 14 13 12 12 11 10 9 9 8 8 8 8 8 8 8 8 8 8 8 8 8 9 10 11 11 11 12
15 15 15 16 17 17 18 17 18 17 17 16 16 16 16 15 15 14 14 13 12 11 11 10 10 10 9 10 10 10 10 9 9 9 10 10 10 11 11 12 13 14 14
14 15 15 15 17 17 17 18 18 18 17 16 16 16 16 16 16 16 15 13 13 13 12 12 11 11 11 11 11 11 11 10 10 11 11 12 12 13 14 14 15 15 15
14 15 15 15 16 16 17 17 18 18 17 16 16 16 16 16 16 16 15 15 15 14 13 13 13 13 13 13 12 12 12 12 12 12 13 13 14 15 15 16 17 17 17
14 15 16 16 16 16 17 17 18 18 17 17 16 17 17 16 16 16 16 16 15 15 15 15 15 15 15 15 15 15 15 15 15 15 15 16 16 16 17 17 18 18 18
14 14 16 17 16 17 18 18 18 18 18 18 18 17 17 17 17 17 17 16 16 16 16 15 16 17 17 17 16 17 17 18 18 18 18 18 18 18 19 19 19 19 19
15 15 15 16 16 16 17 18 18 18 18 18 17 18 17 17 18 18 18 18 18 17 17 17 17 17 18 18 18 19 19 20 20 20 20 20 20 21 21 21 21 21 22
16 16 16 17 17 17 17 17 17 18 18 18 17 18 18 18 18 19 19 19 18 18 18 18 19 19 20 20 20 20 21 21 21 22 22 22 22 22 22 22 23 24 24
17 17 17 17 17 18 17 17 17 17 17 18 18 18 18 19 19 19 19 19 19 19 19 19 20 20 20 21 21 22 22 22 22 23 23 23 24 24 24 25 26 26 26
17 16 17 17 18 18 18 17 17 17 18 18 19 19 18 18 18 18 18 19 20 20 21 21 21 22 22 22 22 23 23 23 23 23 24 24 25 26 27 27 27 28 28
17 16 17 17 18 18 18 18 18 17 18 18 18 19 19 19 19 19 20 20 21 22 22 22 22 23 23 23 23 24 24 24 24 25 25 26 26 27 28 29 29 30 31
17 17 17 17 17 18 18 18 18 18 18 19 19 20 21 21 21 21 22 22 22 22 23 23 24 24 24 24 24 24 25 25 26 27 27 27 28 29 30 31 31 32 33
16 17 18 18 18 19 19 19 19 19 19 20 20 21 22 23 23 23 23 24 24 25 24 25 25 25 25 25 25 26 27 27 27 28 28 29 30 31 32 33 34 34 35
17 18 19 18 19 19 20 20 21 20 21 21 22 23 23 24 25 25 26 26 26 26 26 26 26 27 27 27 28 28 28 28 29 29 30 31 32 32 33 34 35 36 37
Wind_Direction
211 211 210 207 205 204 206 211 210 211 214 217 223 230 235 246 257 270 279 294 305 310 316 324 328 330 330 324 325 329 324 301 274 257 236 226 221 219 225 229 233 237 238
211 210 209 210 209 208 210 214 212 211 211 217 227 232 234 245 257 270 280 293 300 302 310 320 327 332 333 341 342 337 328 316 291 261 234 222 222 224 230 233 237 241 243
210 210 210 211 212 212 215 216 213 211 215 221 228 232 239 245 252 262 274 285 292 298 306 320 329 333 338 350 350 341 333 330 302 258 223 222 228 229 234 239 243 245 246
213 212 210 212 215 216 217 217 214 214 219 223 228 231 239 247 251 257 268 270 278 285 292 302 320 335 337 346 345 345 356 352 335 290 220 222 237 241 240 239 243 248 251
214 213 214 214 216 217 219 217 218 219 221 225 229 233 240 245 251 257 261 258 261 266 270 278 297 312 309 327 342 351 7 10 7 3 299 258 258 258 252 248 249 251 255
216 219 217 217 218 218 221 222 224 224 225 227 230 235 240 242 245 250 252 248 251 255 259 264 271 281 290 297 318 331 338 345 357 346 312 290 279 272 266 262 259 259 261
217 219 219 218 219 221 223 222 228 230 229 228 230 235 239 240 242 245 245 245 247 254 256 263 268 275 275 276 281 286 303 312 316 308 301 299 299 288 284 276 272 269 265
217 220 221 223 225 227 226 223 229 232 232 231 233 234 238 240 242 241 242 244 247 253 258 263 272 283 272 265 267 276 292 301 302 300 293 294 299 293 294 282 275 278 275
221 223 224 225 226 228 228 226 228 229 231 231 233 234 237 238 240 244 242 244 248 250 251 259 266 274 287 286 280 280 284 286 291 294 293 292 293 294 295 286 281 280 281
223 224 225 225 225 226 228 227 228 232 233 233 232 234 238 237 237 242 243 244 248 249 249 250 256 265 275 282 286 291 289 287 285 281 282 286 288 290 294 289 285 286 286
223 223 227 229 230 228 228 230 231 231 232 234 232 234 237 238 239 243 247 250 251 248 248 251 253 257 265 274 279 283 287 285 281 280 281 284 286 290 293 291 289 290 289
226 229 233 233 231 229 228 229 229 231 230 233 233 235 236 237 239 240 247 251 251 246 248 252 253 258 262 269 277 280 280 281 281 279 278 283 288 288 288 287 288 290 289
232 234 234 234 231 230 230 228 230 230 230 233 236 235 235 237 238 242 244 248 251 249 252 256 257 260 263 271 277 278 277 277 279 279 278 281 285 289 289 288 286 287 288
234 236 236 235 231 230 228 229 230 229 231 234 237 235 235 236 239 243 244 244 247 251 254 256 259 262 267 272 274 273 275 274 276 277 279 283 286 288 289 289 289 287 286
234 234 235 236 231 228 229 230 230 231 232 235 238 238 237 237 239 243 242 244 247 251 256 255 257 263 268 271 271 271 274 273 274 277 281 283 286 288 290 290 291 291 291
234 234 234 233 229 229 229 229 229 231 233 236 239 239 240 239 239 242 241 245 248 251 255 256 260 264 268 270 271 273 273 273 274 277 281 285 288 289 291 289 289 288 290
233 233 233 231 231 229 229 228 228 231 233 237 239 239 240 242 241 243 245 248 251 255 257 259 262 265 268 269 270 271 274 275 275 278 281 284 287 289 292 290 288 288 288
238 238 234 232 233 233 230 229 230 232 237 240 241 242 242 243 243 243 246 251 255 259 259 264 266 266 267 268 270 273 274 274 276 278 280 282 284 286 287 288 288 288 288
240 239 236 234 234 235 234 232 231 234 237 239 240 242 244 246 247 246 249 253 258 259 262 266 269 270 270 270 272 274 275 276 277 279 280 281 283 285 287 287 287 287 287
239 240 239 235 234 235 236 235 234 235 237 239 241 243 246 248 250 251 251 255 258 261 265 268 271 272 273 273 274 275 277 277 277 278 279 280 283 284 286 287 288 289 289
239 239 238 234 233 234 235 236 237 236 238 241 242 246 250 251 252 254 254 256 260 262 265 269 272 274 275 275 276 278 279 278 278 277 278 279 281 283 285 287 288 289 290
238 238 237 233 232 233 235 235 236 237 239 242 244 249 253 254 256 257 258 260 263 265 268 272 274 275 276 276 278 278 279 279 279 279 279 280 280 282 285 287 288 289 290
239 240 237 233 235 237 238 236 238 240 243 246 250 251 253 255 258 260 263 265 266 267 269 272 273 274 275 277 278 278 280 280 279 280 279 281 282 284 286 287 288 289 290
240 240 236 234 236 238 238 239 242 245 248 250 251 252 255 258 261 263 267 268 268 270 271 272 273 273 274 276 278 280 280 279 280 280 280 281 283 284 286 287 288 289 290
241 238 235 238 237 237 241 243 246 249 252 253 254 256 257 260 263 265 267 269 268 270 272 273 273 274 274 276 278 279 280 280 280 281 281 282 283 284 285 287 288 289 290
242 239 239 239 240 241 243 246 249 252 256 258 259 260 261 262 265 267 268 268 269 269 270 271 272 274 275 276 278 279 280 280 281 281 282 284 285 285 286 288 289 290 291
Height
5868 5870 5872 5875 5877 5879 5881 5883 5884 5886 5887 5888 5889 5890 5890 5891 5890 5890 5889 5889 5888 5887 5886 5885 5883 5882 5881 5880 5879 5878 5877 5876 5875 5875 5875 5875 5875 5875 5875 5875 5876 5876 5877
5866 5868 5871 5873 5875 5878 5880 5881 5883 5884 5886 5887 5888 5888 5889 5889 5889 5889 5888 5887 5887 5886 5885 5884 5883 5882 5880 5879 5878 5878 5877 5876 5875 5875 5874 5875 5875 5875 5875 5875 5875 5875 5876
5864 5866 5869 5871 5874 5876 5878 5880 5881 5883 5884 5885 5886 5887 5887 5888 5888 5888 5887 5886 5885 5885 5884 5883 5882 5881 5880 5879 5878 5877 5876 5876 5875 5874 5874 5874 5874 5874 5874 5874 5874 5875 5875
5862 5864 5867 5870 5872 5874 5876 5878 5879 5881 5882 5884 5885 5885 5886 5886 5886 5886 5885 5885 5884 5884 5883 5882 5881 5881 5880 5879 5878 5877 5876 5875 5875 5874 5874 5874 5874 5874 5874 5874 5874 5874 5874
5860 5862 5865 5868 5870 5872 5874 5876 5877 5879 5880 5882 5883 5884 5884 5884 5884 5884 5884 5883 5883 5883 5882 5881 5881 5880 5879 5878 5878 5877 5876 5875 5875 5874 5874 5873 5873 5873 5873 5873 5873 5872 5872
5857 5860 5863 5865 5868 5870 5872 5874 5875 5877 5878 5880 5881 5882 5882 5883 5883 5882 5882 5882 5882 5882 5881 5880 5880 5879 5879 5878 5877 5876 5876 5875 5874 5874 5873 5873 5873 5872 5872 5871 5871 5871 5870
5855 5858 5860 5863 5865 5868 5869 5872 5873 5875 5876 5877 5879 5880 5880 5881 5881 5881 5881 5881 5881 5880 5880 5879 5879 5878 5878 5877 5876 5876 5875 5875 5874 5874 5873 5872 5872 5871 5870 5870 5869 5869 5869
5853 5855 5858 5860 5862 5865 5867 5869 5871 5872 5873 5875 5876 5877 5878 5879 5879 5879 5879 5879 5879 5879 5879 5878 5878 5877 5876 5875 5875 5875 5875 5874 5873 5873 5872 5871 5871 5870 5869 5869 5869 5868 5867
5850 5852 5855 5857 5859 5862 5864 5866 5868 5870 5871 5872 5874 5875 5876 5876 5877 5877 5877 5877 5878 5878 5877 5877 5876 5876 5875 5875 5874 5874 5873 5873 5873 5872 5871 5870 5870 5869 5869 5868 5868 5868 5867
5847 5849 5852 5854 5856 5859 5861 5863 5865 5867 5868 5870 5871 5872 5873 5874 5874 5875 5875 5876 5876 5876 5876 5876 5875 5875 5874 5874 5873 5873 5872 5872 5871 5871 5870 5870 5869 5868 5868 5867 5866 5866 5865
5844 5847 5849 5851 5853 5856 5858 5860 5862 5864 5865 5867 5869 5870 5871 5871 5872 5873 5873 5874 5874 5874 5874 5874 5874 5873 5873 5872 5872 5872 5871 5871 5870 5870 5869 5869 5868 5867 5866 5866 5865 5864 5863
5842 5844 5846 5848 5850 5852 5854 5856 5859 5860 5862 5864 5866 5867 5868 5869 5870 5871 5871 5872 5872 5872 5872 5872 5872 5872 5871 5871 5871 5870 5869 5869 5869 5868 5868 5867 5866 5866 5865 5864 5863 5862 5861
5839 5841 5842 5844 5846 5848 5850 5853 5855 5857 5859 5861 5862 5864 5865 5866 5867 5868 5869 5869 5870 5870 5870 5870 5870 5870 5869 5869 5869 5868 5868 5867 5867 5866 5866 5865 5865 5864 5863 5862 5861 5859 5858
5835 5837 5839 5840 5842 5844 5847 5849 5852 5854 5856 5858 5859 5860 5862 5863 5864 5865 5866 5866 5867 5867 5867 5867 5868 5868 5867 5867 5866 5866 5865 5865 5865 5864 5863 5863 5862 5861 5860 5859 5858 5856 5855
5831 5833 5835 5837 5838 5841 5843 5846 5848 5850 5852 5854 5856 5857 5858 5860 5861 5862 5862 5863 5864 5864 5865 5865 5865 5865 5865 5864 5864 5863 5863 5862 5862 5861 5861 5860 5859 5858 5857 5856 5854 5853 5851
5828 5829 5831 5833 5835 5837 5840 5842 5845 5847 5849 5850 5852 5853 5855 5856 5857 5858 5859 5860 5861 5861 5862 5862 5862 5862 5861 5861 5861 5860 5860 5859 5859 5858 5858 5857 5856 5855 5854 5852 5851 5849 5848
5824 5825 5827 5829 5831 5834 5836 5839 5841 5843 5845 5847 5848 5850 5851 5852 5853 5854 5856 5856 5857 5857 5858 5858 5858 5858 5858 5858 5857 5857 5856 5856 5855 5855 5854 5853 5852 5851 5849 5848 5846 5845 5843
5820 5822 5823 5826 5828 5830 5833 5835 5837 5839 5841 5843 5844 5846 5847 5848 5849 5850 5851 5852 5853 5853 5854 5854 5854 5854 5854 5853 5853 5853 5852 5851 5851 5850 5849 5848 5847 5846 5845 5843 5841 5840 5838
5816 5818 5819 5822 5824 5827 5829 5831 5833 5835 5837 5839 5840 5842 5843 5844 5845 5846 5847 5848 5849 5849 5849 5850 5850 5849 5849 5849 5848 5848 5847 5847 5846 5845 5844 5843 5842 5841 5839 5838 5836 5834 5832
5812 5814 5816 5818 5820 5823 5825 5827 5829 5831 5833 5835 5836 5837 5839 5840 5841 5841 5842 5844 5844 5844 5845 5845 5845 5844 5844 5844 5843 5843 5842 5841 5840 5839 5838 5837 5836 5835 5833 5832 5830 5828 5826
5808 5810 5811 5814 5816 5819 5821 5823 5825 5827 5829 5830 5832 5833 5834 5835 5836 5837 5838 5839 5839 5839 5840 5839 5839 5839 5838 5838 5837 5837 5836 5835 5834 5833 5832 5831 5830 5828 5827 5825 5823 5821 5818
5804 5805 5807 5809 5812 5814 5817 5819 5821 5823 5824 5826 5827 5828 5829 5830 5831 5832 5833 5833 5834 5834 5834 5834 5833 5833 5832 5832 5831 5830 5829 5828 5827 5826 5825 5824 5822 5821 5819 5817 5815 5813 5811
5799 5801 5803 5805 5808 5810 5812 5815 5816 5818 5820 5821 5822 5823 5824 5825 5826 5827 5827 5828 5828 5828 5828 5828 5827 5827 5826 5825 5824 5824 5823 5821 5820 5819 5818 5816 5815 5813 5811 5809 5807 5805 5802
5795 5796 5799 5801 5803 5805 5808 5810 5812 5813 5815 5816 5817 5818 5819 5820 5820 5821 5821 5821 5822 5821 5821 5821 5820 5820 5819 5819 5818 5817 5815 5814 5813 5811 5810 5809 5807 5805 5803 5801 5798 5796 5793
5790 5792 5794 5796 5799 5801 5803 5805 5807 5808 5809 5811 5811 5812 5813 5814 5814 5815 5815 5815 5815 5815 5815 5814 5813 5813 5812 5811 5810 5809 5808 5806 5805 5803 5802 5800 5798 5796 5794 5791 5789 5786 5783
5786 5788 5790 5792 5794 5796 5798 5800 5801 5802 5804 5805 5805 5806 5807 5807 5807 5807 5807 5807 5807 5807 5807 5806 5806 5805 5804 5803 5802 5801 5799 5798 5796 5795 5793 5791 5789 5787 5784 5782 5779 5776 5773